Showing default

CAS500-2, 69013

Orbit data source: Space-Track

CAS500-2, 69013 is a payload satellite owned by KAIST (KR) in SSO that was launched on Sun, 03 May 2026 UTC via an FALCON 9 launch vehicle from the Air Force Western Test Range (AFWTR). Payload-class satellites include a variety of spacecraft equipped with specific instruments for various scientific and technological missions. These include communications satellites like Starlink; space stations such as the ISS; scientific satellites like the Hubble; Earth observation satellites from companies like Planet Labs, Umbra, and HawkEye 360; GPS; miniature CubeSats for education and research; and military/defense satellites.

Loading next visibility...
Identifier
69013, 2026-100AK
Orbit
SSO
Country
Flag of KRKR / SKOR
Related business
Manufacturer
SatRec Initiative
Mission
Operational Civil Technology
Bus & Motor
CAS500, Unknown motor
Mass
516 kg wet, 516 kg dry
Launch date (UTC)
2026-05-03 (4 months ago)
Launch vehicle
FALCON 9
Launch site
Air Force Western Test Range (AFWTR)
Object type
Payload
Rocket body
Debris
Shape & HBR
Box + 4 Pan, 14.5 m
Radar Cross Section
7.561 m², Large (>1 m²)

Expand to show TLE details & history
Last TLE update: 15 hours ago

TLE from 15 hours ago
0 CAS500-2
1 69013U 26100AK  26237.64858155  .00005173  00000-0  23951-3 0  9999
2 69013  97.3797 134.1045 0010747 115.9524 244.2821 15.20496685 17363
Epoch: 2026-08-25T15:33Z
TLE epoch observation values (Epoch: 2026-08-25T15:33:57.445Z)
Latitude
0.00005°
Longitude
-73.29777°
Altitude
510.65 km
Speed
7.607 km/s
True Right ascension
08h 56m 25s
True Declination
0° 00' 00"
Sunlit
Object was in daylight at epoch
Visualization orbit readout
Latitude
Unknown
Longitude
Unknown
Altitude
Unknown
Speed
Unknown
Apparent Right ascension
Unknown
Apparent Declination
Unknown
Sunlit
N/A
Visualization observer readout
Local Sidereal Time
21:34:25
Azimuth
Unknown
Elevation
Unknown
Doppler factor
Unknown
Orbital elements
Apogee altitude
508.699 km
Perigee altitude
493.912 km
Semi-major axis
6,879.442 km
Eccentricity
0.00107
Inclination
97.3797°
RAAN
134.1045°
Arg. of periapsis
115.9524°
True anomaly
244.17121°
Mean anomaly
244.2821°
Eccentric anomaly
244.22665°
Mean motion
3.80376 °/min
Orbital period
94.64 mins
BSTAR
0.00023951
Loading maneuver chart data...
Computing Atmospheric mass density...
Loading historical data...
Loading historical data...
Loading historical data...
Loading historical data...
Loading historical data...
Loading historical data...
Loading historical data...

Documentation

Showing up to 5 results
|